Wind_Speed
15 17 19 21 23 25 26 28 29 30 32 34 36 37 38 38 38 38 37 36 35 34 34 33 32 31 31 31 30 29 28 28 26 25 23 21 20 18 17 17 18 20 23
13 14 16 17 19 21 23 25 27 29 31 33 36 38 40 42 43 43 43 42 41 40 39 38 37 36 35 34 34 33 32 31 30 29 27 25 23 21 19 18 18 18 20
11 13 14 16 18 20 22 23 25 27 28 30 33 35 38 40 42 44 46 46 47 46 45 44 42 41 40 39 37 37 36 34 34 33 31 29 27 25 23 21 20 19 19
13 15 16 18 20 21 23 24 26 27 29 31 32 34 35 37 39 41 43 45 47 48 49 48 47 46 45 44 42 41 39 38 37 37 35 34 31 29 27 25 23 21 21
15 17 19 21 23 25 26 28 29 31 32 34 35 36 37 38 39 40 42 43 45 47 49 50 50 50 50 48 47 46 44 43 41 40 40 38 36 34 31 29 26 25 23
19 21 23 26 28 30 32 34 35 37 38 39 40 41 42 43 44 44 45 45 46 46 48 49 51 52 52 52 51 50 49 47 46 44 43 42 40 38 36 34 31 28 27
24 26 29 31 33 36 38 40 42 43 45 47 48 48 49 50 50 50 50 51 51 50 50 50 51 52 53 54 54 53 53 52 50 49 47 46 44 43 41 38 35 33 31
29 32 34 37 40 42 44 47 49 51 53 55 56 57 58 58 58 58 57 57 57 56 56 54 53 53 54 55 56 56 56 55 54 52 51 50 48 47 45 43 40 37 35
34 37 39 42 45 48 51 54 57 59 61 63 64 65 66 66 66 66 65 64 63 63 62 60 59 58 57 57 57 57 58 57 57 55 54 53 52 51 50 48 45 42 40
39 42 45 48 51 54 58 61 63 66 69 71 72 73 74 74 73 73 72 71 70 68 67 66 65 64 62 61 60 59 59 59 59 58 57 56 55 54 53 52 50 47 44
44 47 50 54 57 60 64 67 69 72 74 76 78 79 80 80 79 78 77 76 75 74 72 70 69 68 67 66 65 63 62 61 61 60 59 58 57 56 56 56 54 52 49
48 52 55 58 62 65 68 71 73 76 78 80 81 82 83 84 84 83 82 81 79 78 76 75 73 72 71 70 69 68 66 64 63 63 62 61 59 58 58 58 58 56 53
52 56 60 63 67 70 72 75 77 80 82 83 85 86 87 87 87 87 87 85 84 82 80 79 77 76 75 74 73 72 70 68 66 65 64 64 62 61 60 60 60 59 57
57 60 64 67 71 74 77 79 81 83 85 86 88 89 91 91 91 91 91 90 89 87 85 83 82 80 79 78 77 76 74 73 71 68 67 66 66 64 62 61 61 61 59
60 64 67 71 74 77 79 82 84 87 89 92 93 94 94 94 94 92 91 90 89 89 87 86 85 83 82 81 80 79 79 77 75 73 70 69 68 67 66 64 62 62 61
63 67 71 74 77 79 82 85 89 92 94 94 93 91 88 86 85 84 83 82 82 82 83 83 83 82 82 82 82 82 82 81 79 77 74 72 71 70 69 68 66 64 63
67 71 74 77 79 83 86 90 93 94 92 89 84 81 77 75 73 72 72 72 72 73 74 75 77 78 78 80 82 83 84 84 83 81 79 76 74 73 72 71 70 68 67
71 74 77 79 83 86 89 91 92 89 85 80 76 73 71 69 68 67 67 66 66 66 67 69 71 72 74 77 79 82 84 86 86 86 83 81 78 76 75 74 74 73 71
74 77 80 82 85 88 89 89 86 81 77 74 73 71 70 69 68 67 66 64 63 63 62 64 66 69 71 74 77 80 83 86 89 89 88 85 82 80 78 77 76 76 75
77 80 82 85 86 88 87 83 78 74 72 72 71 71 69 67 66 64 63 61 60 60 60 60 63 66 68 71 73 77 82 86 90 92 91 90 87 84 81 79 78 78 78
79 81 84 85 86 86 83 78 74 71 71 71 70 68 66 63 60 58 57 56 55 55 56 58 59 63 66 69 70 73 78 84 90 92 94 93 91 88 85 82 79 78 78
80 82 84 86 86 83 79 76 73 72 71 69 66 63 59 56 54 52 50 49 49 49 51 53 56 58 63 67 69 70 73 79 86 91 95 96 95 92 89 86 83 80 78
81 83 84 85 83 79 76 74 72 71 68 63 58 54 53 51 50 48 47 46 44 44 45 47 50 54 58 63 68 70 71 73 79 86 92 96 97 96 94 90 87 85 81
81 83 84 84 80 77 75 74 73 69 63 58 53 51 51 52 51 50 48 46 44 42 41 42 44 48 53 58 64 69 70 71 73 78 86 93 98 99 97 94 91 88 85
81 83 83 81 77 75 75 74 71 66 59 54 51 52 53 54 54 53 51 49 46 44 42 41 40 42 47 53 59 66 70 70 71 72 77 87 94 99 100 98 94 91 89
81 82 81 77 75 75 75 72 68 62 56 53 53 54 54 55 55 55 53 51 48 46 43 41 40 40 42 47 54 61 67 70 70 69 70 76 87 95 100 100 98 94 92
Wind_Direction
286 285 284 282 282 281 281 280 277 275 273 271 269 268 267 266 264 261 258 256 254 253 253 252 251 250 249 249 249 249 249 248 246 245 242 239 235 229 223 222 222 224 224
300 296 293 291 288 286 284 282 280 279 276 274 272 270 269 268 268 266 263 260 257 254 253 252 252 251 250 249 248 247 247 247 245 243 241 238 235 231 226 223 221 223 223
314 309 304 300 298 295 293 292 290 288 285 282 279 277 274 272 270 269 267 264 261 258 255 253 252 251 251 250 249 247 246 246 245 243 241 238 235 232 229 224 221 221 222
322 318 315 313 311 309 307 304 302 300 297 294 291 287 283 279 276 273 270 268 265 262 259 255 253 251 250 249 248 247 246 245 244 243 241 238 236 234 230 227 221 220 221
333 329 325 322 319 316 313 310 308 305 302 300 297 294 291 288 284 280 276 272 269 265 262 259 255 252 250 249 248 247 245 244 242 241 240 238 236 234 232 229 225 221 219
332 327 323 319 316 313 310 308 305 303 301 298 296 294 292 290 287 285 281 278 274 270 266 263 259 255 252 249 247 246 245 243 242 241 240 238 236 235 233 231 227 224 222
326 322 318 315 312 309 306 304 302 300 298 296 295 293 291 288 286 284 281 279 276 274 270 267 263 259 255 252 248 246 244 243 241 240 239 238 236 234 233 233 230 227 225
321 318 315 312 309 307 305 303 301 299 297 296 294 292 290 288 286 283 280 278 276 273 271 269 266 263 259 255 252 248 244 243 241 240 239 238 236 234 234 234 232 229 228
317 314 312 310 308 307 305 303 301 300 298 296 294 292 290 288 286 284 281 278 275 272 270 268 265 263 261 258 255 251 247 244 241 240 239 237 236 234 233 233 233 231 229
315 314 312 310 308 306 305 303 301 300 298 296 295 293 291 289 286 284 281 278 275 271 268 266 263 261 260 257 255 253 250 246 242 240 239 238 236 234 233 233 233 232 230
314 313 311 310 308 307 305 303 301 300 298 296 294 292 290 288 286 283 280 277 274 271 268 264 261 259 257 255 254 252 250 248 245 241 238 237 236 234 233 233 233 232 230
314 312 311 309 307 306 304 303 301 299 297 296 294 291 289 287 285 282 279 276 273 270 267 263 260 257 254 252 251 250 249 247 245 242 239 237 235 234 233 232 232 232 231
313 311 310 309 307 306 304 303 301 299 297 295 293 291 289 286 284 281 278 275 272 269 266 263 259 256 252 250 248 247 246 245 244 242 240 237 235 234 233 232 232 232 231
313 312 312 311 309 307 306 304 302 300 298 296 294 291 288 285 283 280 277 275 272 269 265 262 258 255 252 248 245 244 243 243 242 241 239 237 235 233 232 232 232 232 232
315 315 314 312 311 309 308 306 305 303 301 298 296 293 290 288 285 283 280 277 274 270 267 263 259 255 251 247 244 241 240 239 239 239 238 237 235 233 232 231 231 232 233
317 316 315 314 313 312 310 309 308 305 303 301 299 297 295 292 289 285 282 278 275 271 267 264 259 255 251 247 243 240 238 237 236 236 235 235 234 233 231 230 230 231 231
319 319 318 317 316 315 314 312 310 308 306 305 303 301 298 295 291 287 283 279 275 270 265 261 257 253 249 246 242 239 237 235 234 233 233 232 232 232 230 229 229 229 230
322 322 321 320 319 318 316 314 312 311 310 308 306 304 301 298 295 291 287 282 277 271 265 260 255 251 247 243 240 238 236 233 231 231 230 230 230 229 229 228 228 228 229
325 325 324 322 320 319 317 316 315 314 313 311 309 306 304 301 298 294 290 285 280 274 268 261 254 249 245 241 238 235 233 231 230 229 228 228 227 227 227 227 227 227 228
328 327 325 323 322 320 319 318 317 316 314 312 310 308 306 303 300 297 292 287 282 276 270 263 255 249 244 240 236 233 231 229 228 227 226 226 225 225 225 225 226 227 228
329 327 325 324 322 321 320 319 318 317 315 313 312 310 309 307 304 301 297 291 285 279 272 265 258 250 244 239 235 232 230 228 226 225 224 224 223 223 223 223 223 225 227
329 327 326 325 324 323 322 321 321 320 318 317 316 315 314 312 310 307 302 297 290 283 275 268 261 253 245 240 235 231 229 228 227 224 223 222 222 221 221 221 220 222 225
329 328 327 326 325 325 324 323 323 322 321 319 319 318 317 315 314 311 307 302 295 288 279 272 264 256 248 241 236 231 228 227 227 225 223 221 220 219 219 219 219 220 222
330 329 328 328 327 326 326 325 325 324 323 322 322 321 319 317 315 312 309 305 299 292 284 277 269 260 250 242 237 232 228 226 225 226 225 222 220 218 218 218 218 219 220
331 331 330 330 329 328 328 328 328 327 326 326 325 323 321 317 314 311 308 304 298 292 286 280 272 264 254 244 238 232 228 225 223 224 225 224 220 218 217 216 216 217 218
333 332 332 331 330 330 330 330 330 329 328 327 325 323 320 317 313 309 305 301 296 291 285 280 274 267 257 247 239 233 228 225 223 222 223 225 222 219 216 215 215 215 216
Height
5874 5873 5872 5871 5869 5868 5867 5866 5865 5864 5863 5862 5861 5861 5860 5860 5859 5859 5859 5858 5858 5858 5857 5857 5857 5857 5857 5857 5858 5858 5859 5859 5860 5861 5861 5862 5862 5863 5863 5864 5865 5866 5867
5871 5870 5868 5867 5866 5864 5863 5861 5860 5858 5857 5856 5855 5854 5853 5853 5852 5852 5851 5851 5851 5851 5850 5850 5850 5851 5851 5851 5852 5853 5853 5854 5855 5856 5857 5858 5859 5860 5860 5861 5862 5863 5864
5869 5868 5866 5865 5863 5861 5860 5858 5856 5854 5853 5851 5849 5848 5846 5845 5844 5843 5842 5842 5842 5842 5842 5842 5843 5843 5843 5844 5845 5846 5847 5848 5849 5850 5852 5853 5854 5856 5857 5857 5858 5859 5861
5868 5867 5865 5863 5861 5859 5857 5855 5853 5850 5848 5846 5844 5842 5840 5838 5837 5835 5834 5833 5832 5832 5832 5833 5834 5834 5835 5836 5837 5838 5839 5841 5842 5844 5845 5847 5849 5851 5852 5853 5854 5856 5857
5866 5864 5862 5860 5857 5855 5853 5850 5848 5845 5843 5840 5838 5835 5833 5831 5829 5827 5825 5824 5823 5822 5822 5822 5823 5824 5825 5826 5827 5829 5830 5832 5834 5836 5838 5841 5843 5845 5847 5849 5850 5852 5853
5864 5861 5859 5856 5853 5850 5847 5844 5841 5839 5836 5833 5831 5828 5825 5822 5820 5818 5816 5814 5813 5812 5811 5811 5812 5812 5814 5815 5817 5818 5820 5822 5824 5827 5829 5832 5835 5838 5841 5843 5845 5847 5848
5860 5857 5854 5851 5847 5844 5841 5837 5834 5831 5827 5824 5821 5818 5815 5812 5809 5807 5805 5803 5802 5801 5800 5800 5800 5800 5801 5803 5805 5807 5809 5811 5814 5817 5820 5823 5827 5830 5833 5835 5838 5841 5843
5856 5852 5849 5844 5840 5836 5832 5828 5824 5820 5816 5812 5809 5805 5802 5799 5796 5794 5792 5790 5789 5788 5787 5787 5788 5788 5789 5790 5792 5794 5796 5799 5803 5806 5810 5813 5817 5821 5824 5827 5830 5833 5836
5850 5846 5842 5837 5832 5827 5822 5817 5812 5807 5802 5798 5794 5790 5786 5783 5780 5777 5775 5773 5773 5772 5772 5772 5773 5774 5775 5776 5778 5780 5783 5787 5791 5795 5799 5803 5807 5811 5814 5818 5821 5825 5829
5844 5839 5834 5829 5823 5817 5811 5805 5799 5793 5787 5782 5777 5772 5768 5764 5761 5758 5755 5753 5753 5753 5754 5755 5756 5757 5759 5761 5763 5765 5769 5772 5777 5782 5786 5791 5795 5800 5804 5807 5811 5816 5820
5837 5831 5826 5820 5813 5807 5800 5793 5786 5778 5771 5765 5759 5753 5748 5743 5739 5736 5733 5731 5730 5731 5732 5734 5736 5738 5741 5744 5746 5750 5753 5757 5762 5768 5773 5778 5783 5788 5793 5797 5801 5805 5810
5829 5823 5817 5810 5803 5796 5788 5780 5771 5763 5755 5747 5740 5733 5727 5721 5716 5712 5709 5706 5706 5706 5708 5710 5713 5716 5720 5724 5728 5732 5737 5742 5747 5752 5758 5764 5769 5775 5780 5785 5789 5794 5799
5822 5815 5808 5799 5791 5782 5773 5764 5755 5745 5736 5727 5718 5710 5704 5697 5691 5687 5683 5680 5680 5681 5682 5684 5687 5692 5697 5701 5706 5712 5718 5724 5729 5736 5742 5748 5755 5762 5767 5772 5778 5783 5788
5813 5805 5796 5787 5777 5766 5755 5745 5734 5724 5714 5704 5694 5686 5678 5670 5663 5659 5654 5652 5651 5652 5654 5657 5660 5665 5671 5677 5683 5690 5697 5704 5711 5718 5726 5732 5740 5747 5754 5760 5766 5771 5777
5803 5793 5783 5772 5761 5750 5738 5725 5713 5701 5689 5677 5667 5657 5648 5640 5633 5628 5623 5621 5620 5621 5623 5627 5631 5637 5643 5650 5658 5666 5674 5682 5690 5699 5708 5716 5724 5732 5739 5746 5753 5759 5765
5792 5781 5770 5757 5744 5731 5717 5704 5690 5677 5663 5650 5637 5627 5617 5610 5603 5598 5593 5590 5589 5590 5592 5595 5600 5607 5614 5622 5631 5640 5650 5659 5669 5679 5689 5698 5706 5715 5723 5732 5739 5746 5753
5779 5768 5755 5741 5727 5712 5697 5682 5666 5651 5637 5624 5612 5602 5592 5584 5578 5572 5567 5564 5562 5562 5563 5565 5570 5576 5584 5593 5603 5612 5624 5635 5646 5657 5667 5678 5687 5697 5706 5715 5723 5732 5739
5766 5753 5738 5724 5709 5693 5677 5660 5643 5628 5614 5601 5590 5580 5571 5562 5555 5549 5544 5541 5538 5536 5537 5539 5542 5548 5555 5564 5574 5585 5597 5610 5622 5633 5644 5656 5667 5677 5688 5697 5707 5716 5724
5751 5737 5722 5707 5692 5676 5658 5640 5623 5608 5594 5582 5571 5560 5551 5542 5534 5528 5522 5518 5515 5513 5512 5514 5517 5522 5529 5536 5546 5558 5570 5583 5595 5608 5621 5633 5645 5657 5668 5679 5689 5698 5708
5736 5721 5706 5691 5675 5659 5641 5625 5608 5593 5579 5566 5554 5542 5532 5523 5515 5507 5501 5497 5493 5491 5490 5490 5493 5498 5504 5511 5521 5532 5543 5555 5568 5582 5596 5610 5623 5636 5649 5660 5671 5681 5691
5721 5706 5691 5676 5659 5642 5626 5611 5597 5582 5568 5553 5539 5526 5515 5505 5497 5489 5482 5477 5473 5470 5469 5469 5470 5475 5481 5488 5497 5508 5519 5529 5541 5556 5571 5586 5600 5615 5628 5641 5653 5664 5674
5709 5693 5677 5660 5642 5625 5609 5594 5580 5565 5551 5537 5523 5510 5499 5490 5482 5474 5467 5461 5456 5452 5450 5449 5450 5453 5459 5465 5474 5485 5497 5507 5517 5531 5545 5560 5576 5592 5607 5621 5635 5647 5657
5696 5679 5662 5644 5626 5610 5594 5580 5566 5552 5537 5524 5512 5500 5488 5479 5470 5462 5454 5448 5442 5437 5434 5432 5431 5433 5439 5444 5452 5463 5474 5485 5496 5508 5520 5536 5551 5568 5585 5600 5615 5629 5641
5683 5665 5647 5629 5612 5596 5580 5566 5551 5537 5524 5512 5500 5489 5478 5467 5458 5450 5442 5435 5429 5424 5420 5417 5416 5416 5419 5425 5431 5441 5453 5464 5475 5487 5498 5512 5527 5545 5563 5580 5596 5611 5624
5670 5652 5634 5616 5599 5583 5567 5552 5537 5523 5510 5499 5489 5478 5467 5456 5445 5436 5429 5421 5415 5410 5406 5403 5401 5400 5402 5406 5413 5421 5432 5444 5456 5467 5479 5491 5506 5523 5541 5560 5577 5592 5607
5659 5641 5622 5605 5588 5572 5556 5540 5525 5512 5500 5489 5479 5468 5456 5445 5433 5422 5413 5406 5399 5395 5391 5388 5386 5386 5386 5389 5395 5403 5413 5426 5438 5450 5462 5471 5485 5502 5520 5539 5557 5573 5588